This demonstration page uses our WeatherBlox Daily Observations layout. Learn more.

Hourly Observations for July 27, 2018

Temp ( °F °C ) Dew Point ( °F °C ) Humidity (%) Winds ( mph kmh ) Pressure ( in mb ) Visibility ( mi km ) Precip ( " mm )
12:15 am 00:15 Clear 62 16.7 62 16.7 100 100 Calm 30.12 1020 7 11.26538 0 0
12:35 am 00:35 Clear with Mist and Fog 62 16.5 62 16.5 100 100 Calm 30.12 1020 4 6.43736 0 0
12:55 am 00:55 Mostly Cloudy with Mist and Fog 62 16.5 62 16.5 100 100 Calm 30.12 1020 1.75 2.816345 0 0
1:15 am 01:15 Mostly Cloudy with Mist and Fog 61 16.2 61 16.2 100 100 Calm 30.12 1020 1.25 2.011675 0 0
1:35 am 01:35 Clear with Mist and Fog 61 16 61 16 100 100 Calm 30.12 1020 3 4.82802 0 0
1:55 am 01:55 Mostly Cloudy with Mist and Fog 60 15.3 60 15.3 100 100 Calm 30.12 1020 3 4.82802 0 0
2:15 am 02:15 Cloudy with Fog 59 15.1 59 15.1 100 100 Calm 30.12 1020 0.25 0.402335 0 0
2:35 am 02:35 Cloudy with Fog 58 14.7 58 14.7 100 100 Calm 30.12 1020 0.25 0.402335 0 0
2:55 am 02:55 Cloudy with Fog 58 14.2 58 14.2 100 100 NNE 5 7 30.12 1020 0.5 0.80467 0 0
3:15 am 03:15 Cloudy with Fog 58 14.6 58 14.6 100 100 Calm 30.12 1020 0.5 0.80467 0 0
3:35 am 03:35 Cloudy with Fog 58 14.5 58 14.5 100 100 Calm 30.12 1020 0.5 0.80467 0 0
3:55 am 03:55 Cloudy with Mist and Fog 58 14.5 58 14.5 100 100 NE 3 6 30.12 1020 1 1.60934 0 0
4:15 am 04:15 Mostly Cloudy with Mist and Fog 58 14.4 58 14.4 100 100 NE 5 7 30.12 1020 1 1.60934 0 0
4:35 am 04:35 Clear with Mist and Fog 58 14.4 58 14.4 100 100 NNE 6 9 30.12 1020 3 4.82802 0 0
4:55 am 04:55 Clear with Mist and Fog 58 14.6 58 14.6 100 100 N 3 6 30.12 1020 2.5 4.02335 0 0
5:15 am 05:15 Partly Cloudy with Mist and Fog 58 14.5 58 14.5 100 100 NW 3 6 30.12 1020 1.5 2.41401 0 0
5:35 am 05:35 Mostly Cloudy with Mist and Fog 57 13.9 57 13.9 100 100 Calm 30.15 1021 1.75 2.816345 0 0
5:55 am 05:55 Mostly Cloudy with Mist and Fog 56 13.5 56 13.5 100 100 Calm 30.15 1021 1 1.60934 0 0
6:15 am 06:15 Clear with Mist and Fog 56 13.6 56 13.6 100 100 Calm 30.15 1021 2.5 4.02335 0 0
6:35 am 06:35 Mostly Cloudy with Mist and Fog 56 13.6 56 13.6 100 100 Calm 30.15 1021 0.75 1.207005 0 0
6:55 am 06:55 Mostly Cloudy with Mist and Fog 57 14.1 57 14.1 100 100 Calm 30.12 1020 2 3.21868 0 0
7:15 am 07:15 Sunny with Mist and Fog 59 15.1 59 15.1 100 100 E 5 7 30.12 1020 5 8.0467 0 0
7:35 am 07:35 Sunny 60 15.6 60 15.6 100 100 ESE 6 9 30.12 1020 7 11.26538 0 0
7:55 am 07:55 Sunny 61 16 61 16 100 100 ESE 8 13 30.12 1020 10 16.0934 0 0
8:15 am 08:15 Sunny 60 15.8 60 15.8 100 100 E 8 13 30.15 1021 10 16.0934 0 0
8:35 am 08:35 Sunny 62 16.5 62 16.5 100 100 ESE 10 17 30.15 1021 10 16.0934 0 0
8:55 am 08:55 Sunny 63 17 63 17 100 100 ESE 10 17 30.12 1020 10 16.0934 0 0
9:15 am 09:15 Sunny 65 18.6 63 17.1 91 91 SE 9 15 30.09 1019 10 16.0934 0 0
9:35 am 09:35 Sunny 67 19.5 63 17.1 86 86 ESE 8 13 30.09 1019 10 16.0934 0 0
9:55 am 09:55 Sunny 69 20.5 63 17 80 80 SE 8 13 30.12 1020 10 16.0934 0 0
10:15 am 10:15 Sunny 70 21.3 63 17.2 78 78 SE 7 11 30.09 1019 10 16.0934 0 0
10:35 am 10:35 Sunny 71 21.8 64 17.7 78 78 SE 7 11 30.09 1019 10 16.0934 0 0
10:55 am 10:55 Sunny 72 22.4 62 16.9 71 71 SSE 6 9 30.09 1019 10 16.0934 0 0
11:15 am 11:15 Mostly Cloudy 74 23.1 64 17.7 72 72 SE 6 9 30.09 1019 10 16.0934 0 0
11:35 am 11:35 Partly Cloudy 74 23.4 63 17.4 69 69 SSE 8 13 30.09 1019 10 16.0934 0 0
11:55 am 11:55 Partly Cloudy 76 24.2 62 16.9 64 64 S 7 11 30.09 1019 10 16.0934 0 0
12:15 pm 12:15 Sunny 77 24.9 62 16.8 61 61 SSE 7 11 30.03 1017 10 16.0934 0 0
12:35 pm 12:35 Sunny 77 25.1 63 17.2 62 62 SSE 8 13 30.03 1017 10 16.0934 0 0
12:55 pm 12:55 Sunny 78 25.4 61 16.3 57 57 SSE 9 15 30.03 1017 10 16.0934 0 0
1:15 pm 13:15 Partly Cloudy 79 26.1 62 16.5 56 56 SSE 7 11 30.03 1017 10 16.0934 0 0
1:35 pm 13:35 Partly Cloudy 79 26.2 62 16.5 55 55 S 7 11 30.03 1017 10 16.0934 0 0
1:55 pm 13:55 Partly Cloudy 79 26 62 16.9 57 57 S 9 15 30.03 1017 10 16.0934 0 0
2:15 pm 14:15 Sunny 79 26.2 60 15.7 52 52 S 9 15 30.03 1017 10 16.0934 0 0
2:35 pm 14:35 Partly Cloudy 79 26.2 60 15.5 52 52 S 8 13 30.03 1017 10 16.0934 0 0
2:55 pm 14:55 Partly Cloudy 78 25.8 60 15.6 53 53 SSE 6 9 30.03 1017 10 16.0934 0 0
3:15 pm 15:15 Sunny 79 25.9 61 16.3 56 56 SSE 5 7 30.03 1017 10 16.0934 0 0
3:35 pm 15:35 Sunny 78 25.8 63 17.1 59 59 S 7 11 30 1016 10 16.0934 0 0
3:55 pm 15:55 Partly Cloudy 78 25.7 63 17.3 60 60 SSE 3 6 30 1016 10 16.0934 0 0
4:15 pm 16:15 Partly Cloudy 78 25.6 63 17.2 60 60 SSE 5 7 30 1016 10 16.0934 0 0
4:35 pm 16:35 Partly Cloudy 78 25.4 65 18.1 64 64 S 3 6 30 1016 10 16.0934 0 0
4:55 pm 16:55 Partly Cloudy 77 25.1 65 18.3 66 66 Calm 30 1016 10 16.0934 0 0
5:15 pm 17:15 Mostly Cloudy with Light Rain 78 25.4 65 18.2 64 64 S 6 9 30 1016 10 16.0934 0 0
5:35 pm 17:35 Partly Cloudy 77 24.8 66 19.1 71 71 SSE 7 11 30 1016 10 16.0934 0 0
5:55 pm 17:55 Sunny 76 24.6 67 19.3 72 72 E 9 15 29.97 1015 10 16.0934 0 0
6:15 pm 18:15 Sunny 78 25.5 66 18.8 67 67 E 9 15 29.97 1015 10 16.0934 0 0
6:35 pm 18:35 Sunny 78 25.7 62 16.9 58 58 SE 7 11 29.97 1015 10 16.0934 0 0
6:55 pm 18:55 Sunny 78 25.4 63 17.4 61 61 ESE 7 11 29.97 1015 10 16.0934 0 0
7:15 pm 19:15 Sunny 76 24.5 64 17.9 67 67 E 5 7 29.97 1015 10 16.0934 0 0
7:35 pm 19:35 Mostly Cloudy 75 24.1 65 18.5 71 71 E 3 6 30.03 1017 10 16.0934 0 0
7:55 pm 19:55 Cloudy 74 23.5 66 19 76 76 E 3 6 30.03 1017 10 16.0934 0 0
8:15 pm 20:15 Cloudy 73 22.7 66 19.1 80 80 ENE 7 11 30.03 1017 10 16.0934 0 0
8:35 pm 20:35 Mostly Cloudy 72 22.2 67 19.5 85 85 E 5 7 30.03 1017 10 16.0934 0 0
8:55 pm 20:55 Mostly Cloudy 73 22.6 65 18.3 77 77 ESE 8 13 30.03 1017 10 16.0934 0 0
9:15 pm 21:15 Cloudy with Heavy Rain 70 21.2 66 18.9 87 87 NE 6 9 30.03 1017 3 4.82802 0.2 5.08
9:35 pm 21:35 Cloudy with Heavy Rain 70 20.9 66 18.9 88 88 SSE 10 17 30.03 1017 7 11.26538 0.45 11.43
9:55 pm 21:55 Mostly Cloudy with Light Rain 69 20.3 66 19 92 92 N 6 9 30.06 1018 10 16.0934 0.45 11.43
10:15 pm 22:15 Mostly Cloudy with Light Drizzle 68 20 66 19 94 94 SSW 3 6 30.06 1018 10 16.0934 0 0
10:35 pm 22:35 Partly Cloudy 67 19.7 66 19 96 96 E 9 15 30.06 1018 10 16.0934 0 0
10:55 pm 22:55 Partly Cloudy 66 19.1 65 18.5 96 96 E 7 11 30.06 1018 10 16.0934 0 0
11:15 pm 23:15 Mostly Cloudy 67 19.3 65 18.2 93 93 SSE 6 9 30.06 1018 10 16.0934 0 0
11:35 pm 23:35 Partly Cloudy 65 18.5 64 18 97 97 ESE 5 7 30.06 1018 10 16.0934 0 0
11:55 pm 23:55 Mostly Cloudy 65 18.5 64 17.8 96 96 SE 6 9 30.06 1018 10 16.0934 0 0

Powered by AerisWeather